Tracking 17828 objects as of 30-July-2016
HD Live streaming from Space Station
objects crossing your sky now

INSAT 1C

Track INSAT 1C now!
INSAT 1C is classified as:


NORAD ID: 19330
Int'l Code: 1988-063A
Perigee: 35,756.0 km
Apogee: 35,815.6 km
Inclination: 15.0 °
Period: 1,435.7 minutes
Semi major axis: 42156 km
RCS: 1.9952 m2 (large)
Launch date: July 21, 1988
Source: India (IND)
Launch site: FRENCH GUIANA (FRGUI)
Your satellite tracking list
Your tracking list is empty





NASA's NSSDC Master Catalog

Two Line Element Set (TLE):
1 19330U 88063A   16211.14946130 -.00000004  00000-0  00000+0 0  9994
2 19330  14.9833 359.6140 0007072 112.3172 309.3139  1.00300174 84014
Source of the keplerian elements: AFSPC

N2YO: 822